THOR ABLESTAR DEB, 644

Orbit data source: Space-Track

THOR ABLESTAR DEB, 644 is space debris in LEO originally from a launch on Thu, 29 Jun 1961 UTC launched from the Air Force Eastern Test Range (AFETR). Debris objects in space refer to the collection of defunct objects orbiting the Earth. Examples of debris include non-operational satellites, rocket bodies, and fragments generated from explosions, collisions, or faulty payload assembly.

Loading next visibility...
Identifier
644, 1961-015GV
Orbit
LEO
Country
Flag of USUS
Related business
Manufacturer
Unknown
Mission
Spacecraft
Bus & Motor
Unknown
Mass
Unknown
Launch date (UTC)
1961-06-29 (64 years ago)
Launch vehicle
Unknown
Launch site
Air Force Eastern Test Range (AFETR)
Object type
Payload
Rocket body
Debris
Shape & HBR
Unknown
Radar Cross Section
Small (<0.1 m²)

Expand to show TLE details & history
Last TLE update: 20 hours ago

TLE from 20 hours ago
0 THOR ABLESTAR DEB
1 00644U 61015GV  25258.92932336  .00000215  00000-0  34977-3 0  9997
2 00644  67.0983 205.4621 0145990 308.9309 110.0866 13.60907017160417
Epoch: 2025-09-15T22:18Z
TLE epoch observation values (Epoch: 2025-09-15T22:18:13.538Z)
Latitude
53.47127°
Longitude
-89.65303°
Altitude
1,078.874 km
Speed
7.299 km/s
True Right ascension
16h 00m 07s
True Declination
53° 18' 49"
Sunlit
Object was in daylight at epoch
Visualization orbit readout
Latitude
Unknown
Longitude
Unknown
Altitude
Unknown
Speed
Unknown
Apparent Right ascension
Unknown
Apparent Declination
Unknown
Sunlit
N/A
Visualization observer readout
Local Sidereal Time
11:21:21
Azimuth
Unknown
Elevation
Unknown
Doppler factor
Unknown
Orbital elements
Apogee altitude
1,138.943 km
Perigee altitude
922.618 km
Semi-major axis
7,408.917 km
Eccentricity
0.0146
Inclination
67.0983°
RAAN
205.4621°
Arg. of periapsis
308.9309°
True anomaly
111.64778°
Mean anomaly
110.0866°
Eccentric anomaly
110.86819°
Mean motion
3.40338 °/min
Orbital period
105.78 mins
BSTAR
0.00034977
Loading maneuver chart data...
Computing Atmospheric mass density...

Documentation

Showing up to 5 results
|